Time,TemperatureF,DewpointF,PressureIn,WindDirection,WindDirectionDegrees,WindSpeedMPH,WindSpeedGustMPH,Humidity,HourlyPrecipIn,Conditions,Clouds,dailyrainin,SoftwareType,DateUTC
2013-01-15 00:02:00,9.0,9.0,-100.00,North,355,0.0,0.0,99,-99.99,,,-99.99,,2013-01-15 06:02:00,
2013-01-15 00:12:00,9.0,9.0,-100.00,WNW,290,0.0,0.0,99,-99.99,,,-99.99,,2013-01-15 06:12:00,
2013-01-15 00:22:00,8.0,8.0,-100.00,NW,315,0.0,0.0,99,-99.99,,,-99.99,,2013-01-15 06:22:00,
2013-01-15 00:33:00,8.0,8.0,-100.00,NW,315,0.0,0.0,99,-99.99,,,-99.99,,2013-01-15 06:33:00,
2013-01-15 00:42:00,8.0,8.0,-100.00,North,10,0.0,0.0,99,-99.99,,,-99.99,,2013-01-15 06:42:00,
2013-01-15 00:53:00,8.0,8.0,-100.00,North,10,0.0,0.0,99,-99.99,,,-99.99,,2013-01-15 06:53:00,
2013-01-15 01:02:00,8.0,8.0,-100.00,North,10,0.0,0.0,99,-99.99,,,-99.99,,2013-01-15 07:02:00,
2013-01-15 01:12:00,8.0,8.0,-100.00,NNW,335,0.0,0.0,99,-99.99,,,-99.99,,2013-01-15 07:12:00,
2013-01-15 01:22:00,7.0,7.0,-100.00,NNW,335,0.0,0.0,99,-99.99,,,-99.99,,2013-01-15 07:22:00,
2013-01-15 01:33:00,7.0,7.0,-100.00,NNW,335,0.0,0.0,99,-99.99,,,-99.99,,2013-01-15 07:33:00,
2013-01-15 01:42:00,7.0,7.0,-100.00,NNW,345,0.0,0.0,99,-99.99,,,-99.99,,2013-01-15 07:42:00,
2013-01-15 01:53:00,7.0,6.0,-100.00,NNW,345,0.0,0.0,99,-99.99,,,-99.99,,2013-01-15 07:53:00,
2013-01-15 02:02:00,7.0,6.0,-100.00,NNW,345,0.0,0.0,99,-99.99,,,-99.99,,2013-01-15 08:02:00,
2013-01-15 02:12:00,7.0,6.0,-100.00,NNW,345,0.0,0.0,99,-99.99,,,-99.99,,2013-01-15 08:12:00,
2013-01-15 02:22:00,6.0,6.0,-100.00,NNW,345,0.0,0.0,99,-99.99,,,-99.99,,2013-01-15 08:22:00,
2013-01-15 02:33:00,6.0,6.0,-100.00,NNW,345,0.0,0.0,99,-99.99,,,-99.99,,2013-01-15 08:33:00,
2013-01-15 02:42:00,6.0,6.0,-100.00,NNW,330,0.0,0.0,99,-99.99,,,-99.99,,2013-01-15 08:42:00,
2013-01-15 02:53:00,6.0,5.0,-100.00,WSW,245,0.0,0.0,99,-99.99,,,-99.99,,2013-01-15 08:53:00,
2013-01-15 03:02:00,6.0,5.0,-100.00,WSW,245,0.0,0.0,99,-99.99,,,-99.99,,2013-01-15 09:02:00,
2013-01-15 03:12:00,5.0,5.0,-100.00,WNW,290,0.0,0.0,99,-99.99,,,-99.99,,2013-01-15 09:12:00,
2013-01-15 03:22:00,5.0,5.0,-100.00,NW,305,0.0,0.0,99,-99.99,,,-99.99,,2013-01-15 09:22:00,
2013-01-15 03:33:00,5.0,5.0,-100.00,NW,305,0.0,0.0,99,-99.99,,,-99.99,,2013-01-15 09:33:00,
2013-01-15 03:42:00,5.0,5.0,-100.00,NW,305,0.0,0.0,99,-99.99,,,-99.99,,2013-01-15 09:42:00,
2013-01-15 10:03:00,17.0,16.0,-100.00,ENE,75,0.0,0.0,99,-99.99,,,-99.99,,2013-01-15 16:03:00,
2013-01-15 10:12:00,18.0,18.0,-100.00,ENE,75,0.0,0.0,99,-99.99,,,-99.99,,2013-01-15 16:12:00,
2013-01-15 10:22:00,20.0,18.0,-100.00,East,85,0.0,0.0,93,-99.99,,,-99.99,,2013-01-15 16:22:00,
2013-01-15 10:33:00,20.0,18.0,-100.00,East,85,0.0,0.0,93,-99.99,,,-99.99,,2013-01-15 16:33:00,
2013-01-15 10:42:00,22.0,18.0,-100.00,ESE,115,0.0,0.0,86,-99.99,,,-99.99,,2013-01-15 16:42:00,
2013-01-15 10:53:00,23.0,18.0,-100.00,SSE,150,0.0,0.0,80,-99.99,,,-99.99,,2013-01-15 16:53:00,
2013-01-15 11:03:00,23.0,18.0,-100.00,SSE,150,0.0,0.0,80,-99.99,,,-99.99,,2013-01-15 17:03:00,
2013-01-15 11:12:00,24.0,17.0,-100.00,ENE,75,0.0,0.0,73,-99.99,,,-99.99,,2013-01-15 17:12:00,
2013-01-15 11:22:00,23.0,16.0,-100.00,North,0,0.0,0.0,72,-99.99,,,-99.99,,2013-01-15 17:22:00,
2013-01-15 11:33:00,23.0,16.0,-100.00,North,0,0.0,0.0,72,-99.99,,,-99.99,,2013-01-15 17:33:00,
2013-01-15 11:42:00,26.0,17.0,-100.00,SE,130,0.0,0.0,69,-99.99,,,-99.99,,2013-01-15 17:42:00,
2013-01-15 11:53:00,26.0,16.0,-100.00,East,100,0.0,0.0,64,-99.99,,,-99.99,,2013-01-15 17:53:00,
2013-01-15 12:03:00,26.0,16.0,-100.00,East,100,0.0,0.0,64,-99.99,,,-99.99,,2013-01-15 18:03:00,
2013-01-15 12:13:00,27.0,15.0,-100.00,ESE,115,0.0,0.0,61,-99.99,,,-99.99,,2013-01-15 18:13:00,
2013-01-15 12:23:00,27.0,15.0,-100.00,NE,50,0.0,0.0,60,-99.99,,,-99.99,,2013-01-15 18:23:00,
2013-01-15 12:33:00,27.0,15.0,-100.00,NE,50,0.0,0.0,60,-99.99,,,-99.99,,2013-01-15 18:33:00,
2013-01-15 12:43:00,27.0,15.0,-100.00,NE,55,0.0,0.0,60,-99.99,,,-99.99,,2013-01-15 18:43:00,
2013-01-15 12:53:00,28.0,16.0,-100.00,East,90,0.0,0.0,59,-99.99,,,-99.99,,2013-01-15 18:53:00,
2013-01-15 13:03:00,28.0,16.0,-100.00,East,90,0.0,0.0,59,-99.99,,,-99.99,,2013-01-15 19:03:00,
2013-01-15 13:12:00,29.0,15.0,-100.00,East,95,0.0,0.0,55,-99.99,,,-99.99,,2013-01-15 19:12:00,
2013-01-15 13:23:00,28.0,15.0,-100.00,East,100,0.0,0.0,56,-99.99,,,-99.99,,2013-01-15 19:23:00,
2013-01-15 13:33:00,28.0,15.0,-100.00,East,100,0.0,0.0,56,-99.99,,,-99.99,,2013-01-15 19:33:00,
2013-01-15 13:42:00,29.0,15.0,-100.00,SE,135,0.0,0.0,54,-99.99,,,-99.99,,2013-01-15 19:42:00,
2013-01-15 13:53:00,30.0,14.0,-100.00,South,180,0.0,0.0,51,-99.99,,,-99.99,,2013-01-15 19:53:00,
2013-01-15 14:03:00,30.0,14.0,-100.00,South,180,0.0,0.0,51,-99.99,,,-99.99,,2013-01-15 20:03:00,
2013-01-15 14:12:00,31.0,14.0,-100.00,South,180,0.0,0.0,50,-99.99,,,-99.99,,2013-01-15 20:12:00,
2013-01-15 14:23:00,31.0,15.0,-100.00,South,190,0.0,0.0,51,-99.99,,,-99.99,,2013-01-15 20:23:00,
2013-01-15 14:33:00,31.0,15.0,-100.00,South,190,0.0,0.0,51,-99.99,,,-99.99,,2013-01-15 20:33:00,
2013-01-15 14:43:00,30.0,14.0,-100.00,South,180,0.0,0.0,51,-99.99,,,-99.99,,2013-01-15 20:43:00,
2013-01-15 14:53:00,32.0,15.0,-100.00,North,0,0.0,0.0,49,-99.99,,,-99.99,,2013-01-15 20:53:00,
2013-01-15 15:03:00,32.0,15.0,-100.00,North,0,0.0,0.0,49,-99.99,,,-99.99,,2013-01-15 21:03:00,
2013-01-15 15:13:00,33.0,15.0,-100.00,North,355,0.0,0.0,47,-99.99,,,-99.99,,2013-01-15 21:13:00,
2013-01-15 15:23:00,31.0,14.0,-100.00,South,185,0.0,0.0,48,-99.99,,,-99.99,,2013-01-15 21:23:00,
2013-01-15 15:33:00,31.0,14.0,-100.00,South,185,0.0,0.0,48,-99.99,,,-99.99,,2013-01-15 21:33:00,
2013-01-15 15:43:00,30.0,13.0,-100.00,South,190,0.0,0.0,50,-99.99,,,-99.99,,2013-01-15 21:43:00,
2013-01-15 15:53:00,29.0,13.0,-100.00,SSW,205,0.0,0.0,51,-99.99,,,-99.99,,2013-01-15 21:53:00,
2013-01-15 16:03:00,29.0,13.0,-100.00,SSW,205,0.0,0.0,51,-99.99,,,-99.99,,2013-01-15 22:03:00,
2013-01-15 16:12:00,29.0,13.0,-100.00,SSW,195,0.0,0.0,51,-99.99,,,-99.99,,2013-01-15 22:12:00,
2013-01-15 16:23:00,29.0,14.0,-100.00,South,190,0.0,0.0,53,-99.99,,,-99.99,,2013-01-15 22:23:00,
2013-01-15 16:33:00,29.0,14.0,-100.00,South,190,0.0,0.0,53,-99.99,,,-99.99,,2013-01-15 22:33:00,
2013-01-15 16:43:00,29.0,14.0,-100.00,SSW,210,0.0,0.0,53,-99.99,,,-99.99,,2013-01-15 22:43:00,
2013-01-15 16:53:00,28.0,14.0,-100.00,NW,315,0.0,0.0,57,-99.99,,,-99.99,,2013-01-15 22:53:00,
2013-01-15 17:02:00,28.0,14.0,-100.00,NW,315,0.0,0.0,57,-99.99,,,-99.99,,2013-01-15 23:02:00,
2013-01-15 17:13:00,27.0,15.0,-100.00,NW,320,0.0,0.0,61,-99.99,,,-99.99,,2013-01-15 23:13:00,
2013-01-15 17:22:00,26.0,15.0,-100.00,NW,320,0.0,0.0,65,-99.99,,,-99.99,,2013-01-15 23:22:00,
2013-01-15 17:33:00,26.0,15.0,-100.00,NW,320,0.0,0.0,65,-99.99,,,-99.99,,2013-01-15 23:33:00,
2013-01-15 17:43:00,24.0,15.0,-100.00,NNW,335,0.0,0.0,67,-99.99,,,-99.99,,2013-01-15 23:43:00,
2013-01-15 17:53:00,24.0,16.0,-100.00,NNW,345,0.0,0.0,71,-99.99,,,-99.99,,2013-01-15 23:53:00,
2013-01-15 18:02:00,24.0,16.0,-100.00,NNW,345,0.0,0.0,71,-99.99,,,-99.99,,2013-01-16 00:02:00,
2013-01-15 18:12:00,24.0,16.0,-100.00,North,0,0.0,0.0,72,-99.99,,,-99.99,,2013-01-16 00:12:00,
2013-01-15 18:22:00,23.0,16.0,-100.00,North,10,0.0,0.0,73,-99.99,,,-99.99,,2013-01-16 00:22:00,
2013-01-15 18:33:00,23.0,16.0,-100.00,North,10,0.0,0.0,73,-99.99,,,-99.99,,2013-01-16 00:33:00,
2013-01-15 18:43:00,23.0,15.0,-100.00,NNE,15,0.0,0.0,73,-99.99,,,-99.99,,2013-01-16 00:43:00,
2013-01-15 18:53:00,22.0,15.0,-100.00,ESE,105,0.0,0.0,75,-99.99,,,-99.99,,2013-01-16 00:53:00,
2013-01-15 19:03:00,22.0,15.0,-100.00,ESE,105,0.0,0.0,75,-99.99,,,-99.99,,2013-01-16 01:03:00,
2013-01-15 19:12:00,21.0,16.0,-100.00,NNE,15,0.0,0.0,78,-99.99,,,-99.99,,2013-01-16 01:12:00,
2013-01-15 19:22:00,21.0,15.0,-100.00,North,0,0.0,0.0,79,-99.99,,,-99.99,,2013-01-16 01:22:00,
2013-01-15 19:33:00,21.0,15.0,-100.00,North,0,0.0,0.0,79,-99.99,,,-99.99,,2013-01-16 01:33:00,
2013-01-15 19:42:00,20.0,15.0,-100.00,North,0,0.0,0.0,81,-99.99,,,-99.99,,2013-01-16 01:42:00,
2013-01-15 19:53:00,20.0,16.0,-100.00,NNW,335,0.0,0.0,83,-99.99,,,-99.99,,2013-01-16 01:53:00,
2013-01-15 20:03:00,20.0,16.0,-100.00,NNW,335,0.0,0.0,83,-99.99,,,-99.99,,2013-01-16 02:03:00,
2013-01-15 20:12:00,20.0,16.0,-100.00,South,170,0.0,0.0,86,-99.99,,,-99.99,,2013-01-16 02:12:00,
2013-01-15 20:22:00,19.0,16.0,-100.00,ESE,105,0.0,0.0,88,-99.99,,,-99.99,,2013-01-16 02:22:00,
2013-01-15 20:32:00,19.0,16.0,-100.00,ESE,105,0.0,0.0,88,-99.99,,,-99.99,,2013-01-16 02:32:00,
2013-01-15 20:42:00,19.0,16.0,-100.00,NNW,335,0.0,0.0,90,-99.99,,,-99.99,,2013-01-16 02:42:00,
2013-01-15 20:53:00,18.0,16.0,-100.00,NW,320,0.0,0.0,91,-99.99,,,-99.99,,2013-01-16 02:53:00,
2013-01-15 21:03:00,18.0,16.0,-100.00,NW,320,0.0,0.0,91,-99.99,,,-99.99,,2013-01-16 03:03:00,
2013-01-15 21:12:00,18.0,16.0,-100.00,West,260,0.0,0.0,92,-99.99,,,-99.99,,2013-01-16 03:12:00,
2013-01-15 21:22:00,17.0,16.0,-100.00,West,270,0.0,0.0,94,-99.99,,,-99.99,,2013-01-16 03:22:00,
2013-01-15 21:33:00,17.0,16.0,-100.00,West,270,0.0,0.0,94,-99.99,,,-99.99,,2013-01-16 03:33:00,
2013-01-15 21:43:00,17.0,15.0,-100.00,West,265,0.0,0.0,95,-99.99,,,-99.99,,2013-01-16 03:43:00,
2013-01-15 21:53:00,16.0,15.0,-100.00,West,275,0.0,0.0,96,-99.99,,,-99.99,,2013-01-16 03:53:00,
2013-01-15 22:02:00,16.0,15.0,-100.00,West,275,0.0,0.0,96,-99.99,,,-99.99,,2013-01-16 04:02:00,
2013-01-15 22:12:00,16.0,15.0,-100.00,West,270,0.0,0.0,97,-99.99,,,-99.99,,2013-01-16 04:12:00,
2013-01-15 22:22:00,16.0,15.0,-100.00,WNW,300,0.0,0.0,98,-99.99,,,-99.99,,2013-01-16 04:22:00,
2013-01-15 22:32:00,16.0,15.0,-100.00,WNW,300,0.0,0.0,98,-99.99,,,-99.99,,2013-01-16 04:32:00,
2013-01-15 22:42:00,16.0,15.0,-100.00,WNW,295,0.0,0.0,99,-99.99,,,-99.99,,2013-01-16 04:42:00,
2013-01-15 22:52:00,14.0,14.0,-100.00,WSW,245,0.0,0.0,99,-99.99,,,-99.99,,2013-01-16 04:52:00,
2013-01-15 23:03:00,14.0,14.0,-100.00,WSW,245,0.0,0.0,99,-99.99,,,-99.99,,2013-01-16 05:03:00,
2013-01-15 23:12:00,15.0,14.0,-100.00,SSW,205,0.0,0.0,99,-99.99,,,-99.99,,2013-01-16 05:12:00,
2013-01-15 23:22:00,14.0,14.0,-100.00,NW,305,0.0,0.0,99,-99.99,,,-99.99,,2013-01-16 05:22:00,
2013-01-15 23:32:00,14.0,14.0,-100.00,NW,305,0.0,0.0,99,-99.99,,,-99.99,,2013-01-16 05:32:00,
2013-01-15 23:42:00,13.0,13.0,-100.00,NW,310,0.0,0.0,99,-99.99,,,-99.99,,2013-01-16 05:42:00,
2013-01-15 23:53:00,13.0,12.0,-100.00,South,185,0.0,0.0,99,-99.99,,,-99.99,,2013-01-16 05:53:00,